Wind_Speed
12 7 4 3 3 3 5 2 1 2 2 2 4 4 8 11 11 11 15 14 6 5 1 6 9 12 12 11 13 14 12 7 3 3 3 6 19 28 31 34 35 33 30 26 26 25 24 25 24 25 24 24 24 23 22 21 22 22 21 21 20 19 18 18 18 18 18 18 17 17 16 16 17 17 17 16 16 16 16 16 16 15 15 15 14 14 13 13 13 12 12 12 13 13 12 11 11
11 7 4 2 2 2 2 2 1 2 3 3 5 7 9 6 8 13 16 11 2 1 4 9 12 18 20 14 14 17 14 11 11 8 8 20 25 24 31 35 35 34 31 27 26 25 25 25 24 24 24 24 23 23 22 21 22 22 22 20 19 18 17 18 17 17 17 17 17 17 16 16 16 17 16 15 15 15 16 15 15 15 14 14 13 13 13 12 12 12 11 11 12 12 11 9 12
11 7 6 5 4 2 2 1 2 2 3 5 7 7 8 6 11 12 7 3 3 2 8 11 12 11 17 17 15 15 9 9 15 11 10 21 19 17 29 33 34 34 31 28 25 25 25 24 24 23 23 23 23 23 22 22 23 22 21 19 18 18 17 17 16 17 17 17 17 17 16 16 16 16 16 16 16 15 15 15 14 14 13 13 13 13 12 12 12 12 11 10 11 12 9 8 13
10 8 8 6 2 2 1 1 3 3 3 6 6 5 7 9 12 10 2 2 1 4 8 10 10 7 15 18 11 11 8 7 13 13 8 14 19 22 30 30 32 31 29 27 25 25 24 24 23 23 23 23 23 23 22 22 23 22 20 18 18 17 17 16 16 17 17 17 17 16 15 15 15 15 15 16 16 15 15 16 15 14 13 13 12 12 11 11 11 11 10 9 10 10 9 9 13
10 9 10 6 2 1 1 2 3 3 5 5 4 6 7 5 4 2 2 2 2 5 7 7 6 6 13 12 5 5 5 7 12 16 13 18 26 28 29 30 30 29 28 25 25 25 24 23 22 23 22 22 23 23 23 23 23 22 20 18 18 17 16 16 16 17 17 16 15 15 15 14 15 14 14 15 14 14 15 15 16 15 13 14 13 11 11 11 11 10 9 8 9 9 8 10 13
9 9 10 7 3 2 1 3 4 5 8 6 5 10 9 4 3 4 1 2 4 6 10 9 8 9 10 7 7 5 5 9 11 16 20 24 28 28 29 29 28 27 26 24 25 25 23 23 22 22 22 22 23 23 24 24 23 22 20 19 18 17 15 15 16 16 16 15 15 15 14 14 14 14 14 14 13 12 12 13 13 13 13 13 13 12 10 10 10 9 8 8 9 9 9 11 14
7 4 4 4 3 2 1 4 5 6 8 8 9 13 10 6 3 1 2 4 5 5 11 10 12 14 7 5 7 10 12 15 12 18 25 28 28 28 29 28 27 26 24 25 25 25 24 23 22 22 21 22 23 24 24 24 24 22 20 19 18 17 16 16 15 15 14 14 14 14 14 14 13 14 14 13 13 12 11 11 11 11 11 11 12 12 11 9 8 8 7 6 8 10 10 12 14
8 4 1 2 2 2 3 5 6 7 8 10 12 13 9 7 6 2 1 3 1 2 10 13 15 13 7 9 6 9 19 23 22 26 30 29 28 28 29 28 27 25 24 25 26 25 24 23 23 22 22 23 23 24 25 25 24 22 20 19 18 17 16 16 15 14 13 13 13 14 13 14 13 14 14 14 14 14 13 12 12 10 10 10 10 11 10 9 7 6 5 5 8 10 11 12 13
9 4 1 1 2 3 4 4 6 9 10 12 14 12 6 4 2 3 2 4 4 1 5 12 13 11 8 13 10 5 14 25 31 29 29 27 27 28 28 28 27 26 25 26 26 26 24 23 23 23 23 24 24 25 25 25 23 22 20 19 18 17 17 16 15 13 13 13 13 13 13 14 14 14 14 14 14 13 13 13 13 12 10 10 10 9 9 8 6 6 5 5 7 8 9 10 12
5 4 2 2 3 4 5 5 7 9 12 13 14 12 3 2 1 3 4 4 2 2 7 13 14 14 11 12 9 5 12 25 30 26 25 24 25 28 27 27 27 27 27 27 27 26 24 23 23 23 23 24 25 25 25 24 23 22 20 19 19 18 17 16 15 14 13 13 13 13 13 14 13 13 13 14 13 12 12 12 12 13 12 11 10 9 7 7 7 6 5 5 6 6 6 7 9
2 3 2 2 3 5 5 6 7 8 11 12 13 12 6 6 3 4 4 4 4 3 11 15 12 16 14 9 5 8 19 25 26 23 20 22 24 27 29 28 26 26 28 28 27 26 24 23 24 23 23 24 24 24 24 24 23 21 19 19 19 18 17 16 14 14 14 13 13 14 13 13 13 14 14 14 14 12 12 11 11 11 11 10 10 9 8 8 8 6 5 5 5 4 4 5 7
3 3 2 3 4 5 5 6 8 9 10 10 12 8 5 7 5 3 2 2 3 4 4 10 9 13 12 7 5 9 18 21 24 23 21 24 25 27 31 29 25 26 28 28 28 26 25 24 24 23 23 24 24 24 24 24 22 20 20 19 18 17 16 15 14 15 14 14 13 14 13 13 14 15 15 14 14 13 12 11 10 9 9 9 9 8 8 8 7 5 5 4 4 3 3 3 5
4 4 2 4 4 5 6 7 8 8 7 8 7 1 6 8 5 4 3 0 1 5 1 12 13 11 9 6 6 7 12 18 24 24 23 25 25 28 30 28 27 27 28 28 28 26 26 26 24 24 24 24 24 24 24 23 21 20 20 19 18 16 16 15 15 15 14 13 13 13 14 14 15 15 15 15 14 13 12 10 9 8 7 7 7 7 7 6 4 4 4 4 3 3 3 4 5
4 4 2 4 4 5 6 6 7 6 5 6 3 3 4 5 3 4 5 1 2 2 6 13 12 12 10 7 6 4 8 18 24 25 25 26 25 27 28 28 28 28 27 27 27 26 26 25 24 24 25 25 24 24 23 22 22 21 20 18 17 16 16 15 15 14 13 12 12 13 14 14 14 14 14 14 13 12 11 9 8 7 7 6 6 5 5 4 3 2 2 3 3 3 4 6 6
5 3 3 4 4 5 5 7 7 5 5 5 2 2 3 3 2 4 6 3 5 7 9 10 8 9 8 8 7 6 11 20 24 27 27 27 26 25 27 28 27 27 26 27 27 26 26 25 25 25 25 25 24 24 23 22 21 21 20 18 17 16 15 15 14 13 12 12 12 13 14 14 14 13 14 14 13 11 10 8 7 6 6 6 5 5 5 4 3 2 1 1 2 3 4 6 5
5 2 3 4 5 6 5 7 7 5 6 4 3 2 4 1 2 5 4 4 8 8 8 4 3 8 11 9 12 15 18 23 27 30 29 27 26 25 26 26 26 25 26 27 26 25 25 25 25 25 25 25 25 25 24 22 20 20 19 18 17 16 15 15 14 14 13 13 12 12 13 13 14 13 13 13 12 10 9 7 7 6 6 6 6 6 6 6 5 4 2 1 1 2 3 4 5
4 4 3 4 5 7 6 7 5 3 3 3 6 6 4 1 1 4 4 9 12 10 11 7 5 10 13 13 22 25 24 27 30 31 28 26 24 24 24 24 25 25 25 26 24 24 25 25 25 25 26 26 26 25 23 22 20 19 19 18 17 16 15 15 15 15 14 13 13 13 13 13 14 14 13 12 10 9 8 7 7 7 6 6 5 6 6 6 6 5 3 2 1 3 4 4 5
4 3 4 5 5 7 8 9 6 3 3 4 6 6 5 4 2 2 6 14 13 12 12 12 13 13 16 23 31 30 27 29 30 29 25 22 21 20 20 22 24 24 26 25 24 25 26 26 26 27 26 26 26 24 23 22 20 19 18 18 17 17 16 15 16 16 15 15 15 14 13 13 14 14 13 10 9 8 8 7 7 7 6 5 5 5 6 6 6 5 4 3 2 4 5 5 6
4 3 5 5 7 9 10 11 11 8 4 5 6 3 3 4 3 2 3 12 12 12 11 13 16 17 20 23 27 29 29 28 26 27 23 20 20 18 18 21 23 25 26 25 26 26 26 27 27 27 26 25 25 24 23 22 20 19 19 18 18 18 17 17 18 17 17 16 16 15 14 13 13 13 11 9 8 8 7 7 7 6 5 4 4 4 5 6 6 6 5 4 4 7 8 7 6
5 4 4 6 8 10 12 13 14 11 3 4 4 2 1 3 1 1 5 12 11 10 9 11 14 16 19 17 20 25 26 24 24 24 21 20 20 20 20 21 24 26 25 26 30 28 28 29 28 27 26 25 25 24 23 22 20 20 19 19 19 18 18 18 19 18 18 17 16 16 15 13 13 12 11 9 8 7 7 7 7 6 5 4 3 3 4 5 6 6 6 6 6 8 8 5 4
4 5 6 8 8 10 14 14 13 11 4 4 2 2 2 4 1 2 5 9 8 7 9 13 14 15 18 18 17 18 19 18 20 20 19 20 20 21 22 23 25 26 25 28 31 30 29 29 29 27 26 26 25 25 24 22 20 20 19 19 19 18 18 18 18 18 17 16 16 15 14 14 13 12 11 9 8 7 7 7 7 6 5 4 3 2 3 4 5 5 5 6 5 5 3 2 3
4 6 9 12 10 12 15 12 11 8 7 7 5 5 4 6 4 4 6 1 6 8 12 15 15 14 15 17 15 15 14 13 15 16 17 19 19 20 21 22 25 24 26 30 29 30 31 29 29 27 26 26 25 25 24 22 20 19 19 19 20 18 17 18 17 17 17 17 16 14 13 12 12 11 10 9 8 7 6 6 6 5 5 4 2 1 2 2 3 3 2 3 3 1 1 5 5
6 6 8 11 11 12 13 12 8 4 5 6 6 8 6 5 5 5 5 3 7 10 15 17 16 15 14 14 13 13 13 13 12 10 13 18 19 19 22 24 25 24 26 29 28 29 31 29 28 27 27 27 24 24 23 22 21 20 20 20 20 18 16 16 16 17 17 16 15 13 12 11 11 10 10 10 8 7 5 5 5 4 5 4 2 1 1 2 2 2 1 1 1 2 3 6 2
9 8 8 10 10 12 12 12 8 1 1 2 3 8 8 3 2 5 6 2 10 12 14 18 17 16 15 13 12 11 11 11 9 8 7 11 12 13 18 25 25 24 26 27 27 28 30 28 27 27 28 28 24 23 23 22 22 21 21 22 20 17 15 14 15 16 15 14 13 12 12 11 11 11 10 10 8 7 5 4 5 5 4 5 3 2 2 2 2 3 3 2 3 3 4 5 3
9 9 10 9 9 12 11 10 9 5 4 3 2 5 9 4 2 5 3 10 14 12 14 16 16 16 14 12 11 10 9 11 12 11 10 8 11 10 12 20 25 24 27 29 28 29 29 27 26 27 28 27 24 24 23 21 22 21 22 23 21 17 16 15 15 14 12 13 13 13 13 12 11 10 10 9 6 6 6 5 4 4 3 4 4 2 2 3 2 3 4 2 1 2 6 5 6
7 9 10 9 10 11 11 11 11 7 3 4 3 5 8 6 3 5 1 13 13 12 15 14 15 15 13 11 10 10 10 13 12 14 15 14 18 16 13 18 23 23 27 30 29 30 29 26 25 26 28 27 24 25 23 22 23 23 23 24 21 18 16 16 16 13 12 13 13 12 11 11 11 9 8 7 5 5 6 5 4 4 2 2 2 2 1 1 1 3 4 2 3 4 6 5 7
7 10 10 11 12 10 11 13 10 6 2 3 1 4 7 5 1 4 4 13 15 12 14 13 13 13 12 11 9 9 10 14 16 14 14 14 17 19 17 21 23 23 27 29 28 30 29 26 26 25 28 28 25 24 23 24 24 23 22 21 20 19 17 16 15 13 12 12 11 11 11 11 10 8 7 6 5 6 6 6 5 6 3 1 1 2 1 0 1 3 4 4 5 5 5 5 6
9 11 10 10 11 11 12 13 10 6 3 4 2 7 8 4 4 6 6 11 17 15 13 13 12 11 12 11 9 8 7 15 21 17 13 13 15 20 22 23 24 24 28 28 25 27 27 25 25 24 27 27 25 25 23 23 23 22 21 19 18 17 16 16 14 13 13 11 11 11 11 10 9 7 7 6 6 7 7 7 6 6 5 1 1 1 1 2 3 5 5 5 4 4 7 7 5
10 10 9 11 10 9 11 10 9 7 3 6 6 7 8 5 5 9 9 7 14 16 14 13 12 11 12 11 9 7 7 14 19 16 16 19 21 23 24 23 26 27 25 23 21 24 25 24 24 24 26 25 25 25 22 21 22 22 21 18 17 16 16 15 13 13 11 10 11 10 9 8 8 7 8 8 8 8 8 8 6 6 5 2 1 2 2 3 5 6 6 5 5 6 8 9 7
8 7 5 7 7 7 7 5 7 7 5 7 6 5 7 7 9 10 9 8 11 15 14 13 12 11 11 10 8 6 8 11 13 16 20 23 22 24 24 20 24 25 23 24 24 24 26 25 25 26 25 25 25 24 21 22 23 23 20 18 17 17 16 15 12 11 9 10 10 8 8 8 8 9 9 9 9 8 8 7 6 6 6 3 2 3 3 5 6 8 7 6 6 7 7 8 9
4 6 4 4 4 5 5 5 7 8 6 9 7 4 6 8 10 11 9 8 10 14 14 14 13 11 11 9 9 8 8 9 14 19 20 22 23 23 21 14 19 24 28 28 26 27 28 26 26 27 26 26 26 23 21 21 22 21 20 18 18 17 17 15 12 10 10 10 10 9 9 9 9 10 10 9 9 9 8 7 6 8 7 5 3 3 5 6 7 9 9 7 6 7 8 9 11
3 5 5 4 5 5 6 7 8 9 7 9 8 4 6 7 8 10 9 11 10 12 13 13 14 14 12 10 9 9 8 9 14 17 18 22 20 14 17 27 32 31 29 27 27 28 28 28 30 27 26 26 24 22 20 19 20 22 20 18 17 17 16 14 12 11 10 10 9 9 9 10 11 11 10 8 8 8 8 6 6 7 7 7 4 3 5 6 8 10 9 6 6 6 8 10 12
3 4 5 4 5 4 5 8 10 12 8 9 10 5 4 5 8 11 10 14 11 10 12 12 16 15 12 10 9 9 8 7 9 13 15 14 17 28 38 37 32 30 28 28 29 28 26 27 28 24 23 25 24 23 20 19 22 22 20 16 15 15 14 13 11 10 8 7 8 8 8 9 10 11 10 9 8 8 7 7 7 7 8 8 7 5 5 6 8 10 9 6 5 6 8 11 12
4 4 5 5 6 5 5 6 9 13 10 10 12 9 6 5 9 13 10 14 12 9 11 11 15 14 12 11 10 10 9 7 6 6 13 25 34 40 42 37 30 28 28 28 28 27 24 22 22 23 23 22 23 24 22 22 22 19 17 15 14 14 13 12 10 9 7 6 6 6 7 8 8 8 9 10 10 9 9 9 8 7 9 9 8 7 6 7 9 9 9 8 5 6 8 10 11
5 5 5 5 7 8 8 7 7 12 12 12 11 10 11 9 10 12 8 12 13 11 11 10 15 16 13 11 11 10 9 7 7 18 31 37 36 33 36 36 33 31 29 28 29 27 25 22 22 25 24 19 20 23 22 21 18 17 17 15 14 14 13 11 9 9 8 6 6 6 7 6 6 6 8 9 9 9 10 10 8 8 10 11 10 9 7 8 10 9 10 9 7 7 7 9 10
9 10 7 6 7 8 11 12 12 11 10 13 13 10 13 13 11 12 11 8 8 8 9 9 12 14 11 10 10 10 10 7 13 30 35 28 26 27 27 27 28 29 29 29 30 31 31 29 28 27 24 19 19 19 19 20 19 18 18 17 16 16 15 12 10 9 8 7 7 7 6 4 3 5 7 8 8 8 9 9 9 9 11 12 11 11 9 9 11 11 11 11 10 10 8 10 10
11 11 8 8 7 6 10 12 14 13 8 13 14 10 13 15 12 13 13 7 6 8 10 9 11 12 10 11 10 9 10 6 15 28 27 22 23 22 19 22 27 29 28 28 29 32 35 36 35 31 26 22 21 20 20 21 21 20 20 19 19 17 14 13 12 12 11 10 8 7 6 4 4 5 7 8 8 9 9 9 9 9 11 12 12 11 9 10 12 11 12 11 11 12 11 10 11
11 8 7 8 7 7 9 12 13 11 7 10 13 10 11 13 12 13 12 8 9 9 12 11 13 14 10 12 11 10 10 8 15 20 20 23 23 21 19 21 28 29 28 30 31 33 36 38 37 34 28 24 23 23 22 22 22 22 21 19 17 16 16 16 16 14 13 11 8 7 6 5 7 8 8 9 9 9 9 9 9 9 11 11 12 11 9 10 13 13 13 14 13 12 11 12 14
10 7 6 6 7 7 9 14 16 10 5 8 14 10 8 10 11 13 11 8 7 7 11 11 14 15 11 13 12 11 13 12 14 14 14 18 21 23 20 18 25 30 29 29 31 35 38 38 37 34 29 26 25 24 24 23 21 19 18 17 17 18 18 15 12 11 11 11 9 7 7 6 8 9 9 9 9 9 8 9 9 9 9 10 12 12 9 11 13 13 14 15 15 14 12 13 14
8 6 5 6 8 7 5 10 14 7 3 7 12 7 4 6 8 10 10 7 6 7 10 10 13 16 15 14 12 13 16 15 14 13 12 16 19 21 20 20 24 29 27 27 29 33 37 37 36 36 32 30 28 26 24 22 19 17 18 20 21 20 17 13 12 14 13 13 11 9 8 7 7 7 8 8 8 8 7 8 10 10 8 9 12 11 10 11 12 13 14 15 16 16 13 12 12
7 7 7 6 8 9 7 8 9 6 4 3 9 4 4 4 5 7 7 3 4 6 9 7 9 15 14 12 12 14 17 16 15 13 11 14 16 19 22 23 25 26 26 27 30 34 37 37 36 36 34 33 32 28 24 22 22 23 24 25 24 22 19 17 18 18 16 13 13 12 11 9 9 8 8 7 7 7 8 8 10 10 8 9 11 10 10 11 11 12 13 14 15 16 15 14 13
5 6 8 8 10 12 10 10 9 6 6 3 6 4 4 5 3 5 6 6 5 3 7 7 8 14 14 13 13 14 15 15 15 14 13 12 14 18 22 24 25 26 28 28 30 33 36 37 36 35 34 34 32 30 28 27 28 28 27 26 25 23 20 18 20 21 18 16 15 14 12 11 11 11 10 10 9 8 8 8 9 9 7 7 9 10 10 11 11 11 11 12 13 14 15 16 15
3 4 5 7 10 13 11 9 7 2 3 4 3 5 2 5 4 5 6 6 8 6 7 7 10 15 14 13 14 14 14 14 14 13 13 12 14 17 20 23 27 29 31 29 28 31 33 36 36 35 35 33 32 31 30 29 29 27 26 26 26 25 21 18 19 20 19 18 16 15 14 12 11 11 10 12 12 11 10 8 7 5 5 6 7 9 11 11 11 11 9 10 11 12 14 15 16
4 4 5 9 10 12 10 6 5 3 3 5 0 6 2 4 5 6 7 7 8 8 6 8 13 16 15 13 14 15 15 15 14 14 14 13 15 18 20 24 29 32 32 30 31 33 34 35 36 35 34 34 33 31 29 28 27 27 27 26 26 25 23 22 22 21 19 15 14 15 15 14 12 10 10 11 11 10 9 8 6 4 2 4 6 8 10 11 11 11 10 9 9 11 11 13 15
4 3 6 11 11 12 10 5 5 3 2 5 3 5 3 3 6 6 7 8 8 7 5 12 18 18 15 14 15 14 14 14 14 15 14 13 15 21 24 26 30 33 32 32 35 37 37 36 35 34 35 35 33 31 30 28 27 28 28 28 27 26 24 24 23 21 18 15 15 17 16 15 13 11 10 11 10 8 8 8 8 7 4 3 7 7 8 9 10 11 11 8 8 9 10 11 13
5 6 8 9 10 11 9 6 4 1 2 5 4 3 3 3 7 4 5 8 8 6 5 13 18 18 16 16 15 14 12 11 12 14 14 15 21 25 24 25 29 30 30 33 36 38 37 36 36 37 38 37 35 33 32 29 28 30 31 30 29 27 25 24 23 21 18 17 17 16 15 14 13 11 10 11 11 10 10 9 8 9 9 6 9 9 9 9 10 10 10 9 8 9 10 10 11
6 7 8 7 8 8 6 4 3 4 1 5 3 1 3 1 6 1 2 5 5 1 7 14 15 15 16 16 14 13 11 9 10 11 11 14 22 24 21 21 26 28 28 31 34 36 35 34 35 38 37 36 34 33 31 31 31 31 31 31 30 29 27 25 24 22 19 18 18 16 14 15 14 12 12 11 10 10 10 9 8 9 12 11 10 11 10 10 11 11 10 10 10 9 10 10 11
6 5 5 3 5 5 4 2 2 3 3 5 5 4 4 3 5 1 4 2 4 6 11 17 15 14 15 13 12 12 10 10 9 9 9 10 13 17 18 20 25 28 28 28 29 31 31 31 33 33 32 32 32 31 32 33 32 31 31 31 31 31 29 27 26 24 22 21 20 19 18 17 14 12 11 11 10 10 11 10 10 11 12 11 10 11 11 11 12 13 12 13 12 10 10 11 11
6 5 4 2 2 3 2 3 3 3 4 5 6 7 5 4 4 2 7 7 9 9 13 19 16 14 14 12 12 11 10 11 10 8 9 8 8 11 15 20 23 25 26 25 25 26 27 29 31 30 29 29 29 30 32 32 31 31 32 32 32 31 28 26 26 26 24 22 21 21 19 17 16 13 11 11 11 11 11 11 11 12 13 11 11 11 12 12 13 14 15 15 14 13 13 13 12
7 6 4 4 1 1 2 3 2 2 4 7 7 6 4 2 2 3 8 8 11 14 16 18 16 13 13 11 10 10 10 11 10 9 9 8 8 11 15 16 16 20 23 23 23 22 23 26 29 29 27 26 27 28 31 31 30 31 32 31 30 29 28 27 27 26 24 22 21 20 18 18 19 17 13 12 12 12 12 12 11 11 12 11 10 11 11 12 14 14 15 15 14 14 14 15 13
5 5 4 4 4 2 3 2 3 3 3 5 7 5 3 2 2 1 7 9 11 15 16 16 15 13 12 10 9 8 8 8 7 7 8 7 7 9 11 10 10 15 19 20 20 18 19 23 25 26 26 25 25 27 29 30 29 30 30 29 27 27 27 26 25 24 23 21 20 19 19 19 20 19 16 15 15 14 14 14 12 13 14 13 12 14 14 15 15 15 16 16 15 15 16 16 15
2 3 4 4 4 4 2 2 4 3 1 2 2 2 1 3 2 1 10 13 13 14 16 15 14 13 11 9 8 7 5 5 5 5 6 6 8 9 11 12 12 14 16 16 16 14 14 19 22 24 24 24 24 26 27 27 27 28 28 27 26 26 26 24 23 23 21 20 19 20 21 21 21 20 17 16 15 15 14 14 14 14 14 13 15 16 16 17 17 17 17 17 16 16 17 17 17
2 1 4 6 6 5 3 2 1 4 2 2 1 0 3 1 2 6 10 14 15 14 14 15 12 11 10 8 7 6 5 5 5 5 5 6 10 13 14 14 15 16 16 16 15 12 12 16 19 22 22 22 23 24 24 24 24 26 26 25 24 24 24 23 22 22 20 19 19 20 22 21 21 19 17 15 14 14 15 15 15 13 13 14 16 17 16 16 17 17 17 16 16 16 17 18 16
3 2 4 4 5 2 3 1 1 3 1 2 1 3 2 3 1 5 8 8 14 16 13 13 11 9 8 6 5 6 5 5 5 5 5 6 10 13 13 14 15 17 17 17 16 13 11 14 19 21 21 22 22 22 22 22 23 24 24 23 23 22 23 23 22 22 21 20 20 20 21 21 19 18 17 16 15 16 16 16 15 13 14 16 16 17 16 15 16 17 17 16 15 16 17 16 15
5 4 3 2 3 2 1 1 3 1 2 1 1 2 4 3 1 2 3 4 8 15 13 12 10 7 5 4 5 6 6 6 6 6 5 6 8 11 12 13 13 13 15 17 19 18 14 15 20 22 21 21 21 20 21 22 22 23 23 22 21 20 23 24 22 22 21 20 21 20 20 19 18 17 18 17 17 16 16 17 16 14 15 16 15 16 15 14 15 17 18 17 16 17 17 16 15
5 3 2 2 3 4 1 1 3 3 1 1 1 2 2 2 5 3 6 2 5 12 12 11 9 6 5 4 5 5 5 5 5 5 5 5 7 10 11 12 12 13 15 18 21 22 18 17 22 23 21 20 20 19 20 21 21 21 22 21 20 21 23 22 21 21 21 21 20 19 18 18 17 18 18 17 16 16 16 17 16 14 15 17 16 15 14 13 14 16 17 18 18 17 18 18 17
4 3 3 2 1 3 3 1 2 4 3 2 2 2 2 3 6 4 8 6 7 10 11 10 8 7 6 4 5 5 4 5 4 5 5 4 7 10 10 12 14 16 17 18 19 21 19 19 22 22 20 19 19 19 19 20 19 20 22 21 19 21 22 21 21 20 20 20 19 18 17 17 17 17 18 17 16 16 16 16 16 15 16 17 15 14 14 14 15 16 16 17 18 18 19 19 19
4 5 4 4 4 4 3 2 3 3 4 4 5 2 2 4 5 3 6 6 7 9 10 9 7 6 6 4 5 5 4 4 4 5 5 4 5 7 8 10 13 14 13 12 12 15 18 19 22 22 20 19 19 18 19 19 19 20 21 21 20 22 22 21 20 19 19 20 19 18 17 16 16 17 17 17 16 16 16 16 16 16 16 16 15 15 15 14 15 16 16 17 18 19 19 20 19
Wind_Direction
216 232 254 272 268 313 308 245 163 256 204 256 249 234 240 227 239 264 266 273 292 285 326 81 69 76 84 89 92 71 49 39 38 96 116 123 114 123 136 141 144 147 146 147 149 149 148 148 151 154 156 155 153 150 146 143 140 140 137 134 131 127 119 114 111 107 109 112 114 116 119 119 119 117 113 109 108 108 107 104 103 101 99 99 96 91 88 89 88 85 84 87 90 89 86 89 98
214 235 246 253 265 314 289 194 177 239 179 260 246 228 247 243 241 249 258 267 274 255 41 67 79 87 91 86 80 71 55 48 62 76 96 113 112 120 136 143 147 147 146 147 148 148 147 147 150 152 155 154 152 150 146 144 142 140 137 134 132 128 120 117 115 112 112 112 112 113 117 120 122 122 117 113 109 106 103 102 102 101 99 100 100 98 95 93 92 88 86 83 89 94 90 97 105
219 245 263 258 247 226 281 245 217 234 172 238 245 235 254 262 249 251 266 250 216 97 65 55 59 72 86 77 64 71 75 69 80 87 104 116 113 125 139 144 146 144 144 146 147 146 145 146 150 151 154 153 151 150 147 145 143 141 137 133 132 129 123 120 118 116 114 111 110 109 114 117 121 124 121 117 112 106 104 103 100 99 98 100 101 101 99 98 95 91 87 78 86 98 98 105 107
228 240 261 264 253 206 270 226 202 226 205 237 251 251 243 243 252 248 217 116 321 55 74 70 55 35 74 83 75 72 78 86 98 105 110 119 125 139 142 141 139 139 141 144 146 144 144 147 150 150 152 152 151 149 147 147 146 143 138 134 133 132 126 122 121 120 115 111 109 107 110 115 120 122 123 120 116 114 114 110 104 102 102 104 104 105 105 101 98 93 87 79 85 96 98 102 106
240 241 252 252 264 218 211 236 206 207 222 240 269 281 263 255 286 228 194 79 54 50 59 85 95 53 64 73 79 82 89 90 99 103 101 118 133 141 141 138 135 136 138 143 147 144 145 147 149 150 151 151 151 149 149 149 148 144 139 135 135 133 127 125 125 121 117 114 111 110 110 114 118 120 124 123 119 119 120 117 114 113 109 111 110 110 108 102 100 93 88 82 82 85 88 96 106
245 255 253 238 256 298 265 256 240 235 235 237 260 273 272 286 11 93 133 36 42 51 64 77 99 90 73 62 54 60 130 114 98 106 114 128 138 138 135 134 131 132 136 142 146 144 145 147 149 150 151 151 151 151 151 152 149 145 140 138 137 134 131 129 126 122 119 117 116 115 114 116 117 120 124 123 120 119 122 125 125 123 117 118 112 106 105 103 102 97 95 86 76 72 77 95 110
242 271 257 214 255 282 236 254 256 259 248 235 240 254 260 259 239 87 29 52 19 38 83 92 100 92 81 93 58 35 87 113 113 120 129 134 135 133 132 133 130 132 137 144 145 143 145 148 149 150 151 151 151 152 153 153 150 145 141 139 138 136 135 132 127 124 120 118 118 116 118 121 121 121 123 120 116 110 114 121 129 133 128 127 119 111 108 107 110 108 100 85 75 71 81 97 111
241 260 281 174 240 248 217 257 258 258 262 254 254 261 250 219 199 150 90 92 53 36 97 114 104 87 65 88 92 38 73 107 119 123 130 132 133 133 134 133 131 134 141 145 144 143 147 148 148 149 150 149 151 152 153 152 149 145 143 141 140 138 136 133 129 125 121 119 119 117 120 125 128 126 122 118 112 107 108 111 120 130 131 131 130 130 123 115 118 117 98 83 85 83 91 101 114
233 226 289 224 225 253 242 252 251 253 262 260 264 267 246 213 189 97 46 69 114 232 122 129 104 95 97 87 98 62 76 112 121 121 127 132 136 136 135 134 134 138 143 145 144 145 147 148 148 148 148 148 150 151 153 151 148 146 144 143 141 139 137 134 131 125 122 122 121 121 122 126 131 130 127 124 118 113 111 111 115 120 128 132 138 142 136 126 117 118 106 91 97 98 100 104 119
216 200 254 260 218 252 255 251 251 253 254 254 258 251 210 84 36 64 12 22 62 339 85 96 90 103 111 92 95 112 113 124 123 119 125 129 134 138 135 136 141 143 145 145 145 146 146 149 148 148 148 148 150 152 153 151 149 148 146 144 141 141 138 136 132 127 125 124 124 124 125 126 127 129 131 132 128 123 117 113 115 121 130 134 137 139 137 134 126 127 124 107 100 105 106 101 115
213 206 207 272 254 249 247 252 254 256 256 256 258 242 179 124 113 82 27 340 335 7 93 86 89 105 99 93 93 126 130 131 126 120 123 122 123 132 134 137 145 147 146 145 144 145 145 148 149 149 149 150 152 152 153 152 151 149 147 145 143 142 139 136 133 130 128 126 126 125 125 123 123 126 130 134 132 130 125 119 121 127 133 131 131 132 130 130 132 136 133 118 98 101 104 101 114
248 232 178 233 238 237 243 254 258 264 267 260 262 257 161 119 93 95 70 313 331 337 117 117 124 113 99 106 109 131 132 132 129 122 123 121 114 122 132 137 144 147 145 144 145 146 147 148 149 151 152 152 153 153 154 153 151 149 148 146 143 141 137 135 132 131 130 129 129 126 123 122 123 126 130 132 132 133 128 123 126 130 131 128 126 125 122 118 125 132 123 107 93 103 97 105 126
238 240 198 235 231 240 252 258 265 273 284 270 257 181 123 107 105 160 132 207 342 335 44 126 134 114 105 118 117 133 134 136 132 123 126 123 114 119 130 135 138 143 144 147 147 147 149 150 151 152 154 154 154 155 154 153 151 150 148 145 143 141 137 134 131 131 132 133 133 127 122 123 124 125 128 128 128 130 127 126 130 131 129 125 121 117 114 106 104 110 105 93 88 112 100 107 132
220 242 223 255 260 255 257 260 269 276 285 280 277 107 112 97 129 151 109 30 28 101 97 108 116 97 108 130 117 144 148 141 133 127 129 125 120 120 128 132 134 140 145 149 148 148 151 151 153 154 156 155 155 154 153 153 152 151 148 145 143 141 135 130 129 131 136 139 135 128 124 125 128 128 127 124 126 128 128 129 128 126 123 117 114 109 108 103 95 80 79 84 81 100 104 101 115
208 255 240 260 276 269 267 261 266 273 265 258 295 47 76 86 136 80 91 73 69 111 105 112 120 97 141 165 141 171 158 142 134 130 129 127 125 123 127 130 133 140 145 147 147 149 152 154 156 156 158 156 155 154 151 152 152 151 148 145 143 139 134 129 131 136 140 139 135 130 127 129 131 129 125 123 126 128 126 126 123 117 113 109 106 101 98 94 90 67 39 74 90 100 111 100 98
202 238 251 266 270 271 269 265 275 278 266 264 309 35 95 168 173 94 105 100 80 75 60 96 154 130 162 167 140 154 152 140 132 131 129 128 127 124 128 130 133 140 145 146 147 151 155 157 158 157 157 156 155 154 152 151 152 151 147 146 143 138 135 135 139 142 141 139 137 134 130 131 129 126 125 123 122 121 119 116 115 111 106 101 96 92 86 83 82 75 56 62 125 124 123 105 100
204 221 248 270 265 265 265 261 269 268 279 344 357 16 48 331 161 121 110 84 80 73 55 45 52 120 143 134 133 143 144 137 132 130 130 132 130 128 133 135 136 141 146 147 149 153 159 160 157 157 156 155 156 155 152 151 151 151 147 144 141 138 139 144 147 144 143 141 141 139 135 133 129 127 123 117 116 115 113 111 110 106 100 91 83 82 77 74 72 71 64 56 132 153 146 121 113
213 204 225 248 253 254 259 260 269 313 354 10 355 13 19 358 49 27 80 87 85 80 71 69 68 88 107 117 130 138 139 136 135 134 135 139 138 138 142 144 143 146 149 150 153 160 163 160 157 157 155 155 157 156 154 152 153 151 145 142 139 141 147 153 151 146 147 149 149 144 138 136 132 128 119 114 115 115 111 108 108 101 94 85 77 77 76 70 63 64 65 58 106 147 143 124 117
219 206 219 231 243 253 265 275 288 304 332 11 355 14 347 340 60 340 78 101 99 91 86 89 90 97 106 115 128 136 139 139 142 141 141 144 145 146 147 148 147 152 156 154 158 167 166 160 159 157 154 158 159 157 155 154 155 150 144 142 140 147 157 159 151 150 155 155 152 145 138 138 132 120 113 117 119 117 113 113 112 105 97 85 77 73 75 72 61 61 64 65 104 134 136 126 117
221 210 232 241 240 256 264 268 279 285 311 31 352 16 317 316 109 179 94 97 100 106 112 105 106 116 120 126 132 137 141 144 148 145 144 146 149 151 151 151 151 157 160 157 160 168 169 163 160 156 155 159 159 157 156 155 154 148 144 144 145 155 164 159 154 157 161 157 151 147 144 143 132 121 122 127 126 125 124 123 119 111 101 85 82 73 79 78 67 64 58 66 102 126 133 121 96
219 202 226 251 253 266 263 264 282 296 357 52 322 1 350 307 261 124 77 93 112 127 135 127 127 129 131 137 140 143 146 147 150 149 145 145 151 157 158 156 155 158 157 157 160 164 169 168 162 157 158 159 159 159 157 155 152 146 147 148 151 164 167 159 158 163 163 157 155 153 150 147 140 135 140 142 142 145 141 135 130 123 110 96 87 59 61 64 70 74 63 73 96 114 117 38 347
237 228 225 240 252 266 270 281 301 322 14 29 8 349 345 336 344 26 17 84 156 148 136 133 136 136 137 139 143 148 148 150 155 152 144 145 156 161 160 159 157 154 152 157 159 162 170 170 164 160 161 160 160 159 155 152 148 146 151 151 158 170 168 159 162 168 164 159 161 161 152 150 151 151 153 156 157 160 154 141 139 139 127 123 117 64 33 31 66 82 76 97 94 114 329 338 321
235 254 238 236 238 252 271 282 291 348 7 14 6 320 337 4 342 360 336 258 161 140 129 131 136 137 134 134 145 151 150 159 155 141 139 147 160 166 162 162 163 155 154 160 159 162 170 169 165 163 162 161 159 157 154 150 147 151 156 155 164 175 169 161 164 168 169 166 167 168 162 161 164 164 164 166 166 162 158 147 155 166 152 162 187 168 232 346 33 27 328 223 320 298 328 354 337
231 248 248 247 246 250 265 270 266 299 320 25 27 308 316 348 329 341 335 102 132 131 124 128 133 135 135 139 153 157 155 147 109 91 128 146 157 177 173 165 165 160 159 164 160 163 169 168 166 165 164 162 157 156 157 155 154 157 160 161 169 176 169 165 165 164 171 175 174 175 175 175 174 173 172 171 167 160 164 170 184 191 172 190 228 246 256 300 351 350 320 292 297 308 5 29 129
238 240 244 249 254 259 267 272 272 256 208 156 148 273 288 294 356 330 357 109 129 134 123 125 131 134 138 149 155 158 153 117 101 126 155 158 152 175 197 173 163 160 164 168 164 164 168 167 167 168 166 162 158 161 162 159 159 161 164 166 171 175 171 172 175 169 169 173 171 176 178 181 182 177 173 170 165 165 177 188 189 190 190 209 228 245 267 284 300 337 337 319 300 15 33 54 134
247 244 244 243 247 257 267 270 275 271 214 135 165 232 267 293 10 316 223 126 133 132 127 130 135 137 140 152 154 157 145 121 137 165 163 167 160 164 203 191 165 160 169 171 165 166 168 164 166 171 167 162 163 165 164 164 163 164 168 169 170 177 178 179 181 173 165 164 166 172 174 180 184 179 179 178 176 180 190 197 180 158 161 212 224 212 223 300 292 352 8 60 65 41 40 67 126
264 262 254 242 242 249 257 263 268 271 241 104 355 265 256 265 126 278 237 141 141 136 137 141 141 142 145 151 155 158 145 138 158 168 158 172 169 166 196 198 170 162 170 170 167 167 166 161 165 172 169 165 166 164 165 170 168 165 169 169 171 179 182 181 180 173 167 166 171 174 169 173 181 189 205 202 194 198 204 208 183 146 140 207 265 232 213 74 89 45 62 84 64 55 61 82 125
277 279 280 261 252 251 249 256 269 279 233 157 222 262 260 249 188 238 241 152 146 147 148 152 151 149 149 151 157 163 148 144 154 161 167 181 178 177 195 191 167 161 168 168 165 160 156 157 162 167 170 171 171 167 168 172 169 166 170 172 172 176 178 180 182 180 176 175 179 176 169 172 177 194 213 214 214 209 206 210 189 148 139 187 258 236 217 114 103 84 93 83 67 109 106 105 142
275 282 289 280 276 262 245 243 260 268 217 173 193 244 256 243 223 233 236 187 153 151 158 163 161 151 146 151 160 161 145 144 152 166 179 183 183 185 191 180 163 163 161 150 140 140 146 152 157 162 169 173 170 169 172 170 168 169 172 173 169 169 174 180 184 185 184 178 180 176 175 179 174 190 206 209 220 217 209 210 194 157 145 169 208 207 186 127 115 106 114 100 97 138 125 112 133
267 276 275 279 292 276 249 233 252 255 199 179 187 227 249 236 234 237 238 218 163 155 167 168 163 154 146 153 160 157 149 148 159 172 181 185 182 181 186 178 165 155 131 117 117 131 148 151 158 166 170 171 168 168 170 167 167 168 171 170 167 167 171 179 184 186 182 176 183 186 185 186 180 194 208 211 219 225 221 213 185 158 153 179 213 215 191 137 129 125 127 132 125 128 126 120 124
276 277 281 267 271 277 269 243 240 245 203 180 185 212 243 236 228 229 236 234 183 165 176 171 161 153 148 158 161 162 163 161 172 176 177 177 175 180 181 147 123 116 107 117 130 141 152 154 162 170 168 168 168 165 164 164 167 167 168 168 168 170 172 178 183 179 176 177 191 199 191 193 195 200 212 217 222 228 229 221 188 161 159 183 205 213 186 145 138 138 129 137 142 120 118 127 119
260 244 268 258 241 256 269 256 234 235 215 186 194 220 239 236 235 228 222 239 218 173 179 170 155 153 153 163 164 164 170 167 174 172 168 173 175 159 118 95 96 104 114 133 145 147 152 159 166 168 164 164 166 166 164 165 168 169 170 171 173 175 174 178 183 179 179 181 190 198 193 195 200 203 208 214 230 238 234 224 199 174 171 178 172 176 181 155 142 144 135 136 150 128 115 122 119
266 222 236 246 246 245 245 245 236 238 228 194 203 217 234 229 243 243 218 233 231 173 178 166 153 157 153 162 166 159 163 159 161 163 160 147 109 91 91 95 104 115 132 145 147 146 147 157 162 156 153 158 162 167 169 169 170 173 176 174 172 172 171 180 190 187 187 187 185 192 195 194 197 202 204 208 225 237 234 221 203 191 186 178 167 169 181 165 148 147 143 142 151 141 129 131 129
274 254 234 242 245 248 248 240 230 233 228 206 205 207 228 227 237 247 223 222 226 175 177 164 151 159 159 163 163 156 154 149 148 128 101 88 84 87 95 107 120 129 141 143 140 140 137 144 149 141 144 152 160 167 172 173 171 172 170 164 163 164 168 181 189 178 173 175 178 186 189 188 190 196 204 208 210 215 221 217 205 197 192 184 172 170 180 166 152 156 156 147 148 154 148 144 140
244 248 234 238 235 238 247 250 239 228 216 209 207 203 222 236 241 254 238 214 218 197 182 159 147 157 162 159 154 154 144 134 89 74 83 87 88 91 99 114 131 141 141 131 126 127 126 133 141 143 149 156 163 169 173 172 169 164 158 153 160 164 162 166 164 158 154 143 149 166 168 174 186 188 195 205 211 215 217 212 207 203 195 189 176 168 176 166 154 161 169 158 149 155 148 138 139
237 246 237 229 228 232 238 242 247 240 214 203 207 195 206 226 235 252 257 222 220 216 184 152 142 148 151 147 150 146 132 119 84 87 94 92 92 103 111 120 130 134 133 127 124 126 129 136 142 149 158 164 166 170 170 168 163 159 158 155 158 162 158 153 150 152 151 134 130 146 156 163 178 180 187 201 215 222 219 210 208 210 197 189 179 170 171 167 159 161 167 163 156 155 141 129 138
249 258 263 261 254 247 240 238 239 236 217 202 203 188 196 216 221 236 252 248 260 237 186 155 139 143 144 144 149 135 122 106 86 94 102 99 100 108 109 117 122 122 128 135 132 131 136 141 145 150 158 163 165 165 164 163 162 163 165 161 157 159 159 151 143 142 141 135 130 138 154 171 159 166 185 195 206 214 218 211 203 204 195 186 178 174 177 171 164 164 162 154 154 158 145 134 142
260 266 274 279 277 270 265 266 253 231 216 202 195 185 196 211 216 229 241 246 260 226 174 156 147 150 149 145 145 126 112 90 81 90 101 107 109 102 99 118 128 129 137 142 137 136 142 146 146 146 149 157 161 161 160 161 165 166 164 160 155 152 147 142 137 136 134 129 130 127 127 152 153 158 174 182 193 202 211 207 194 194 193 190 183 179 188 178 165 170 168 153 150 159 151 143 147
258 266 275 280 278 286 287 286 276 244 207 194 186 188 206 210 213 226 231 221 229 194 159 159 155 154 155 150 146 123 109 98 94 103 112 113 106 103 116 137 135 138 148 146 137 139 147 148 146 144 145 151 155 159 162 163 166 163 153 150 150 143 135 135 130 126 124 117 122 120 104 121 144 157 166 171 181 189 204 203 191 192 191 187 183 180 187 180 170 175 177 165 158 157 153 154 157
243 239 256 268 264 275 283 285 282 261 191 167 164 171 235 229 216 229 237 211 198 190 172 163 151 156 163 153 142 127 119 113 111 118 118 111 108 118 143 152 139 142 150 146 140 145 151 151 149 147 147 150 153 156 160 158 156 146 133 134 140 136 130 134 127 118 117 113 115 117 103 103 125 152 164 168 175 177 190 194 182 185 186 177 176 180 185 180 176 179 180 177 169 160 154 165 173
242 227 226 252 266 267 270 303 317 334 0 100 124 103 308 271 230 242 268 257 207 194 178 164 136 145 148 124 119 128 126 125 124 126 124 121 128 140 148 148 143 146 150 151 151 153 155 155 152 148 147 150 151 152 151 147 142 135 128 127 129 129 129 137 137 131 129 124 125 128 116 106 113 130 141 148 162 166 170 180 178 179 181 176 177 182 184 182 184 184 181 181 180 172 164 167 177
256 238 219 239 272 278 284 314 338 358 338 341 100 105 284 291 269 256 278 287 267 198 162 167 123 117 116 106 115 126 123 127 131 132 133 132 137 136 137 144 148 153 159 159 157 156 156 156 152 148 149 152 153 152 150 145 141 137 135 131 130 133 137 144 145 143 141 132 130 134 126 115 114 112 112 117 127 139 148 159 171 180 183 181 185 188 184 185 191 190 188 191 188 182 173 166 170
245 251 236 248 263 271 280 299 317 341 278 288 81 117 251 306 310 265 260 271 266 227 168 155 118 109 114 117 123 127 127 131 130 128 130 134 140 136 140 150 154 160 163 161 160 158 156 155 154 152 153 155 157 158 154 147 141 141 143 141 139 142 146 147 145 142 141 135 133 135 132 129 124 114 111 115 114 115 122 126 131 144 163 176 189 193 187 187 191 190 190 195 189 184 182 173 168
218 226 261 272 266 262 262 263 273 255 226 265 139 118 137 294 285 276 272 271 262 232 177 124 108 110 116 119 124 130 135 133 126 128 135 140 148 148 151 157 160 162 161 158 160 159 158 158 156 154 153 154 158 160 157 153 148 147 148 148 147 145 141 140 139 137 136 138 141 140 139 137 132 128 125 120 115 112 112 112 110 99 120 185 189 185 185 185 188 190 189 193 189 184 186 177 169
237 206 239 264 269 266 256 230 244 244 201 256 239 127 108 282 269 286 299 288 266 237 166 113 111 116 118 119 125 129 131 128 127 133 138 143 153 156 158 162 162 162 160 158 158 158 159 159 157 155 153 155 158 159 160 163 163 157 152 150 148 143 138 137 138 138 135 137 140 138 136 133 130 133 134 125 122 122 118 117 116 98 84 192 195 179 178 179 183 190 188 186 183 172 171 168 164
230 220 238 257 267 273 262 224 223 111 148 240 240 131 114 281 273 282 327 298 265 235 164 120 117 122 124 124 128 129 126 126 131 137 141 151 159 160 162 163 160 160 160 158 158 159 159 160 160 158 157 158 161 164 167 171 171 163 155 153 148 144 142 141 141 142 138 135 134 132 131 132 129 130 133 132 127 124 123 125 127 109 97 132 178 177 175 173 178 186 181 175 174 160 156 161 159
216 213 236 258 268 276 271 227 156 91 270 247 234 136 135 239 279 264 55 292 271 122 113 115 115 119 123 127 131 132 131 133 138 139 142 155 157 155 160 162 158 158 160 158 159 161 161 162 162 161 162 163 163 167 170 169 165 159 155 155 152 150 149 148 147 149 147 143 139 136 138 141 139 128 122 126 131 129 121 120 126 120 108 114 139 158 164 164 169 177 177 174 175 165 157 161 159
224 211 209 243 280 287 287 270 142 130 251 237 201 198 172 200 265 190 87 2 9 64 114 124 125 126 126 131 134 134 136 136 139 138 139 153 149 145 159 165 159 158 160 160 161 163 163 162 161 161 162 161 161 164 165 164 161 157 156 156 155 155 154 153 153 153 152 150 147 146 147 148 148 140 126 118 121 130 125 116 117 119 118 116 121 138 146 147 155 162 164 166 166 161 157 157 154
227 226 176 157 295 308 268 242 199 183 236 236 208 202 195 209 240 135 81 55 37 57 113 127 128 126 125 135 138 135 138 139 144 148 149 159 147 147 169 173 163 159 158 159 160 161 162 161 161 161 162 161 162 163 163 162 159 156 156 157 157 156 155 154 156 157 154 151 151 151 152 151 150 151 145 130 123 129 130 129 127 121 119 119 120 131 138 140 145 148 151 155 155 150 146 146 141
218 212 153 150 175 2 274 238 214 217 233 244 239 219 210 240 295 68 80 77 65 70 97 118 122 120 124 137 136 132 140 145 152 155 154 158 156 166 176 171 160 154 152 153 154 157 159 160 161 162 163 166 165 163 163 160 157 156 156 156 156 156 156 157 159 159 155 153 155 155 155 154 151 147 144 143 141 137 130 128 131 127 121 122 127 131 138 146 147 146 148 150 150 149 145 140 135
202 175 144 167 166 161 248 200 177 228 255 254 247 230 189 160 219 129 88 74 72 86 98 107 114 120 128 134 131 134 143 142 141 144 148 151 154 164 158 138 131 141 146 148 149 152 156 159 163 163 162 166 166 163 163 161 157 157 156 154 156 158 157 158 159 157 154 153 155 156 156 154 150 143 139 143 143 139 133 124 124 128 123 120 124 123 124 134 139 139 142 141 140 143 140 134 129
265 163 153 204 199 170 219 201 167 173 69 340 264 245 221 169 203 55 82 69 60 86 105 107 115 128 133 132 133 136 133 117 113 128 137 127 110 100 100 104 118 135 139 142 146 149 155 161 164 164 163 165 165 165 165 163 159 157 158 156 157 158 158 157 155 154 152 151 154 155 155 152 149 145 143 143 142 142 141 132 128 132 129 124 127 125 121 126 130 131 134 133 132 135 132 126 122
289 249 187 223 220 157 134 261 299 90 101 309 11 10 317 9 1 15 63 78 69 75 96 109 117 125 125 130 135 128 120 113 114 127 124 98 92 91 95 108 125 136 139 141 147 151 159 168 167 163 163 163 163 167 169 166 161 158 159 159 157 158 159 157 151 150 149 148 151 154 152 150 149 148 147 146 146 146 145 141 137 135 135 132 130 131 130 131 135 135 135 134 134 136 132 125 120
155 238 228 229 223 164 93 177 312 54 148 263 148 156 46 38 329 6 24 57 82 82 88 101 106 112 119 123 116 107 105 96 80 90 91 76 85 94 100 112 124 136 142 142 147 152 158 173 175 168 165 166 164 166 168 167 165 160 159 161 162 161 159 155 149 147 148 148 150 153 152 150 150 150 149 146 147 148 147 148 143 132 132 132 130 133 136 136 138 138 138 137 137 139 133 124 120
178 189 210 163 165 198 21 144 188 178 191 207 202 179 74 50 288 61 22 332 80 89 86 86 85 87 98 96 84 80 81 80 73 79 84 79 86 92 101 113 120 134 146 147 153 161 162 172 182 177 171 168 166 164 164 165 165 162 161 162 162 160 157 155 153 152 152 151 151 154 153 151 151 151 150 148 147 147 147 151 146 135 134 134 133 138 141 139 137 136 136 135 135 136 129 120 119
218 164 166 169 151 167 178 179 170 151 170 188 353 334 35 354 310 67 122 164 87 93 92 88 87 80 75 73 74 69 63 70 84 95 95 90 92 98 109 121 126 138 160 170 169 170 169 171 180 179 171 167 166 164 161 160 162 162 162 162 159 156 157 159 160 159 156 152 153 156 155 153 154 155 154 151 148 146 145 149 148 142 138 135 135 140 145 146 141 138 137 136 139 138 129 122 121
212 158 181 210 139 144 147 242 196 145 135 143 122 327 299 289 322 34 103 108 93 97 96 94 96 93 89 82 81 80 65 60 69 89 102 105 109 119 133 150 160 162 171 178 174 172 172 171 174 171 164 161 161 162 161 160 161 161 160 160 159 158 161 164 166 166 162 157 157 159 157 155 155 155 154 150 147 146 146 149 150 147 141 138 137 141 146 146 142 142 143 143 144 141 132 127 126
222 170 183 184 137 128 120 284 255 151 123 149 143 143 240 268 305 27 88 90 87 92 94 96 93 91 94 86 85 87 73 61 62 78 93 98 106 123 140 165 179 180 176 170 168 172 168 161 163 163 159 157 156 158 161 161 161 162 162 162 162 163 165 166 168 169 166 162 160 160 159 157 153 151 151 151 151 150 151 152 151 147 145 142 140 142 146 148 146 147 149 148 146 142 137 135 133
Height
770 772 772 773 773 774 776 776 788 786 785 798 789 782 766 745 745 742 737 731 730 721 708 707 707 711 723 738 744 745 748 752 756 761 775 769 759 762 760 761 764 766 769 771 773 774 775 776 778 780 782 784 787 790 792 794 795 796 798 800 801 802 803 805 806 807 808 809 811 812 813 814 814 815 816 816 817 817 818 819 820 821 822 823 824 825 826 826 827 827 827 828 829 830 831 831 831
770 772 771 774 773 777 778 774 792 792 792 803 784 772 756 742 747 743 737 732 731 718 705 706 710 718 725 731 733 740 751 750 748 752 760 760 761 765 762 762 763 765 769 772 774 775 776 777 779 781 783 785 788 791 793 795 796 797 799 800 802 803 804 806 807 808 809 810 811 812 814 814 815 815 816 817 817 818 819 820 821 822 823 824 825 826 827 828 828 828 828 829 830 831 832 831 831
771 772 772 775 774 776 777 777 793 794 797 802 779 760 749 749 747 738 732 726 721 710 706 708 715 723 726 735 738 748 759 752 747 752 759 761 762 765 765 764 764 767 769 772 775 776 778 779 780 782 784 786 789 791 794 796 797 798 800 801 803 804 805 806 807 808 809 811 812 813 814 815 816 816 817 818 819 820 820 822 823 824 824 825 826 827 828 829 829 829 830 830 831 831 832 832 832
771 772 772 775 777 778 781 784 789 792 797 793 775 755 746 749 740 733 727 718 712 706 708 715 727 727 727 744 746 751 759 753 750 753 760 763 762 765 765 765 767 768 770 773 776 777 779 780 782 783 785 787 790 792 794 796 798 800 801 802 804 805 806 807 808 809 810 811 813 814 815 816 816 817 818 818 820 820 821 822 823 824 825 826 827 828 829 830 831 831 831 831 832 832 832 832 832
771 772 773 775 780 779 780 783 781 786 789 779 771 754 742 741 732 729 723 715 709 707 709 717 734 731 728 742 744 755 760 754 753 752 759 764 763 765 765 767 769 770 772 774 776 778 779 781 783 785 786 788 790 793 795 797 799 800 802 803 804 806 807 808 809 810 811 812 813 815 815 816 817 817 818 819 821 821 822 823 824 825 825 827 828 829 830 831 832 832 832 832 833 833 833 833 833
771 772 772 774 776 772 780 786 782 782 772 764 765 749 738 734 728 726 721 716 710 707 711 719 733 734 740 744 742 751 752 752 755 753 757 763 764 765 767 769 770 772 774 775 777 778 780 782 784 785 787 789 791 793 795 797 799 801 802 804 805 806 808 809 810 811 812 813 814 815 816 817 817 818 819 820 821 822 823 824 825 825 826 827 828 830 830 832 832 833 833 834 834 834 834 834 834
771 774 772 775 775 771 785 790 784 778 759 751 753 741 735 730 724 723 721 720 717 711 713 724 727 736 751 747 748 750 745 750 752 754 757 761 765 766 769 770 772 774 775 777 778 779 781 782 784 786 787 789 791 793 796 797 800 801 803 804 805 807 808 810 811 812 813 814 815 816 816 817 818 819 820 821 822 823 824 825 826 826 827 828 829 831 831 832 832 833 834 834 835 835 835 835 835
772 775 772 778 781 777 785 786 779 771 755 744 739 734 731 724 720 720 720 721 723 718 719 726 722 741 757 746 757 758 747 751 751 756 759 762 766 766 769 770 772 774 776 777 778 780 781 783 784 786 788 790 792 794 797 798 800 802 804 805 806 808 809 811 812 813 814 815 816 816 817 817 818 819 821 822 823 823 825 826 826 827 828 829 830 831 831 832 832 834 834 835 836 836 836 836 836
772 775 773 778 784 781 782 781 773 762 750 741 734 730 725 719 717 719 721 720 721 719 721 723 720 744 760 751 762 759 752 756 753 757 759 763 766 766 769 770 772 774 776 778 779 781 782 784 785 787 789 791 793 796 798 799 801 802 804 805 807 808 809 811 812 814 815 816 816 817 817 817 818 820 821 822 823 824 825 826 827 828 828 829 830 831 831 832 833 834 835 836 836 837 837 837 836
772 773 774 778 782 786 785 778 768 756 746 736 730 726 722 718 717 719 721 722 720 721 722 719 723 744 756 757 764 759 757 757 754 758 760 764 765 766 769 770 773 773 776 778 780 782 784 786 787 789 791 792 795 796 798 800 802 803 805 806 807 808 810 812 813 815 816 817 817 817 818 818 819 820 821 822 824 824 825 826 827 828 829 829 830 831 832 832 834 834 835 836 837 837 838 838 838
775 772 772 781 785 788 785 776 764 752 741 732 725 719 717 714 716 720 721 722 718 722 725 725 736 745 751 760 764 760 757 756 756 759 761 764 765 766 768 771 774 775 777 779 781 783 785 787 789 791 792 794 796 797 799 800 802 804 805 807 808 809 810 812 814 815 816 817 818 818 819 819 820 821 822 823 823 824 825 826 827 829 829 830 831 831 832 833 834 834 836 836 837 838 839 839 839
778 773 773 785 787 783 777 771 761 750 740 733 727 716 713 712 717 722 722 725 720 723 724 726 738 740 754 765 763 760 756 757 758 759 762 764 765 767 769 772 775 777 779 780 782 784 786 787 789 791 793 795 796 798 800 801 803 804 806 807 809 810 811 813 814 816 817 818 818 819 820 820 821 821 823 823 823 824 825 826 828 830 830 831 831 832 833 834 834 835 836 836 838 838 839 840 840
776 772 775 782 776 773 770 765 757 750 745 735 725 715 712 714 719 720 720 724 721 727 725 722 728 733 754 765 761 761 757 758 758 759 763 764 766 768 771 773 776 778 780 781 783 784 786 787 789 791 793 795 797 799 800 802 804 805 807 808 810 811 812 814 815 816 817 818 819 819 820 821 822 822 823 823 824 825 826 827 829 830 831 832 832 833 834 834 835 835 836 837 838 839 839 840 840
769 767 773 778 769 767 765 762 755 753 750 732 721 714 711 713 715 714 718 724 724 728 727 721 724 736 756 763 765 764 757 758 757 760 762 765 768 769 772 774 777 779 781 782 783 785 786 788 790 792 794 796 798 800 801 803 804 806 808 809 811 812 813 815 816 817 818 819 820 820 821 821 822 823 824 823 825 826 827 828 830 831 832 833 833 834 834 834 835 836 837 838 839 840 840 840 841
763 763 768 775 771 768 762 758 753 752 748 729 719 714 712 712 709 713 717 725 729 723 722 723 722 739 756 758 764 761 756 758 757 759 762 766 769 771 774 776 778 780 781 783 783 785 786 788 790 792 794 796 798 800 802 803 805 807 808 810 811 813 814 816 816 817 819 820 820 821 822 822 823 824 824 824 826 827 828 829 831 832 833 834 834 834 835 835 836 836 837 839 839 840 841 841 841
757 760 768 774 774 771 762 753 750 752 744 727 719 713 718 715 707 715 712 716 730 724 724 729 722 732 747 748 752 753 755 758 757 759 762 767 769 772 775 777 780 781 782 783 784 786 786 788 790 792 795 796 799 800 802 804 806 808 809 811 812 814 815 816 817 818 819 820 821 822 822 823 824 824 824 825 826 828 829 830 832 833 834 835 835 835 836 836 836 837 838 839 840 841 841 842 842
753 761 772 777 775 771 760 750 749 748 738 727 721 716 724 721 710 711 707 713 730 732 730 732 725 726 736 740 745 749 754 756 756 759 762 767 769 772 776 778 780 781 783 784 784 786 786 788 790 793 795 797 799 801 803 804 807 808 810 811 813 815 816 816 817 818 820 820 821 822 823 824 824 824 825 826 827 828 830 831 833 834 835 835 836 836 837 837 838 838 838 839 840 841 842 842 842
756 765 773 777 773 764 752 745 742 738 734 729 722 717 721 724 719 712 714 726 732 736 737 734 732 731 734 739 744 749 753 755 756 758 761 766 768 772 775 777 779 781 782 784 785 786 786 789 791 793 795 798 800 802 804 805 807 808 810 812 813 815 815 816 817 819 820 820 821 822 824 824 824 825 825 826 827 829 830 831 833 834 835 836 837 837 838 838 839 839 839 840 840 842 842 842 843
757 763 770 771 763 752 742 739 737 735 734 729 722 719 719 721 722 716 723 737 736 742 745 740 741 742 742 744 747 750 752 754 756 757 761 764 768 770 773 776 778 780 781 782 784 785 787 789 791 794 796 798 800 802 804 805 807 808 810 812 814 815 815 816 817 819 820 820 822 823 825 825 825 825 825 827 827 829 830 832 833 834 835 836 838 839 839 839 840 840 840 840 841 842 843 843 843
754 759 768 763 751 745 737 736 734 732 729 726 725 721 721 720 718 718 726 738 740 745 748 746 749 748 749 750 749 750 751 754 756 758 761 764 767 769 772 774 776 778 780 780 782 784 787 789 792 794 796 799 801 802 804 806 808 809 811 813 814 814 814 816 818 819 820 822 823 824 825 826 826 826 826 827 828 830 830 832 833 834 835 837 838 839 840 840 840 841 841 841 841 842 843 844 844
752 754 763 754 746 746 736 732 731 727 724 725 725 722 725 720 715 719 725 738 745 743 741 744 747 747 748 750 750 750 751 753 756 758 761 764 768 770 771 772 775 777 778 779 781 783 786 789 792 794 797 799 801 803 805 807 809 811 812 814 815 814 815 818 819 819 821 823 823 824 826 826 827 826 827 828 829 830 831 832 833 834 835 837 839 840 841 841 841 842 842 842 842 843 844 844 845
751 750 751 745 744 745 734 730 731 727 723 725 726 726 726 720 718 720 723 736 743 735 733 736 740 742 743 746 749 750 751 753 755 758 761 765 768 770 772 774 775 777 778 779 780 783 786 789 792 794 797 799 801 803 806 809 811 812 813 814 815 815 817 818 820 821 822 823 824 825 826 827 827 827 828 829 830 831 831 832 833 834 835 837 839 840 841 841 842 842 843 843 843 843 844 844 844
753 750 744 740 740 741 732 729 729 725 725 728 729 725 724 726 725 721 722 729 730 725 726 731 735 737 740 743 747 749 751 753 755 759 763 766 769 770 771 773 775 776 777 778 780 783 786 789 793 795 797 800 802 805 808 810 812 813 814 814 815 815 817 819 820 821 822 824 825 826 827 827 827 827 828 829 830 830 831 832 833 834 836 837 839 840 841 842 842 843 843 843 843 843 844 844 843
750 750 742 738 736 735 730 727 727 724 726 726 725 725 726 732 730 724 725 725 724 724 722 727 732 735 740 744 746 748 750 754 759 764 768 769 771 774 774 773 775 776 777 779 781 783 786 790 793 795 798 800 804 807 809 811 812 812 814 815 815 815 817 819 820 821 823 824 825 826 826 827 827 828 829 829 830 830 831 832 833 835 836 838 839 841 842 842 843 843 843 843 843 844 844 844 843
746 747 740 735 733 731 727 726 725 724 724 722 724 729 729 729 727 727 729 726 723 723 722 726 730 734 740 744 746 747 749 755 761 764 767 769 770 776 780 776 774 777 777 779 781 783 786 789 792 795 798 801 804 806 808 810 812 813 814 815 815 816 817 819 820 821 822 824 825 826 826 827 827 828 829 829 829 830 831 832 833 835 837 838 839 841 842 842 843 843 843 843 843 844 844 843 843
742 740 737 734 732 729 726 726 725 724 723 722 727 733 729 724 726 730 729 726 724 723 724 727 730 735 739 742 744 746 750 755 758 760 762 767 766 769 779 779 774 776 777 778 781 782 786 789 793 796 799 802 804 806 807 810 812 814 814 815 815 816 817 819 820 821 823 824 825 826 827 827 828 829 828 828 829 830 831 832 833 835 836 837 839 840 841 842 842 842 842 842 843 844 843 843 844
736 735 734 731 730 726 725 726 724 723 722 723 730 735 730 723 730 736 728 723 724 726 729 729 731 735 737 740 742 744 748 752 754 757 760 765 764 763 773 778 774 775 776 778 780 782 786 790 793 797 800 802 804 806 808 810 812 814 814 815 815 816 817 819 821 822 824 825 825 826 827 828 828 828 828 828 829 830 831 832 833 834 835 837 838 840 841 841 842 842 842 843 843 843 843 843 844
733 734 734 730 728 727 725 725 723 724 724 722 727 733 731 727 733 734 725 721 722 726 731 731 732 734 735 739 742 743 746 749 752 755 759 761 761 762 769 772 772 773 774 776 780 783 788 792 795 798 800 801 803 805 808 810 812 813 813 814 815 817 818 820 822 823 824 825 826 826 827 827 828 828 828 828 829 830 831 832 833 834 835 836 838 839 840 841 841 842 842 843 843 843 843 843 843
733 733 739 735 730 730 726 724 723 724 726 720 725 739 739 734 734 727 719 721 722 726 730 731 732 733 735 739 741 743 744 747 750 753 756 757 758 762 766 768 769 772 774 778 783 787 791 794 797 798 800 801 803 805 808 809 811 812 813 815 816 818 819 820 822 823 824 825 826 826 827 827 828 828 828 829 829 830 830 832 833 833 835 836 838 839 839 840 841 841 842 843 843 843 843 843 842
734 734 739 740 740 737 726 723 723 725 725 717 727 750 749 736 730 722 716 717 722 728 730 731 732 732 735 739 742 744 743 745 748 750 753 755 757 760 763 766 769 772 775 781 786 790 793 795 797 798 799 801 804 806 808 810 812 813 814 815 817 818 819 821 822 823 825 826 826 827 827 828 829 828 828 829 829 829 831 831 832 833 835 836 838 839 839 840 840 841 841 841 841 842 843 842 842
737 739 740 743 750 745 727 723 725 727 724 714 728 751 748 735 727 720 715 714 720 728 729 729 731 731 734 738 741 743 742 743 744 747 751 753 755 758 761 767 772 775 779 783 786 788 790 794 797 798 799 801 804 807 809 811 813 814 815 816 818 819 820 821 822 824 825 826 826 827 828 828 829 829 829 829 828 829 831 831 832 833 835 836 838 839 839 840 840 840 841 840 840 841 842 842 843
740 748 752 747 750 746 731 724 724 728 724 715 728 747 743 732 724 717 714 713 716 725 727 727 729 730 734 737 740 741 740 741 744 747 750 751 755 759 764 770 775 779 782 784 786 786 788 792 796 798 801 802 805 808 810 812 813 814 816 816 818 819 820 822 823 824 825 826 827 827 828 828 829 829 829 828 828 829 830 831 831 833 835 837 838 839 839 840 840 840 840 839 839 840 842 843 843
744 750 757 751 748 748 738 727 720 722 724 719 727 740 739 730 722 715 713 712 714 720 722 724 728 730 734 738 739 740 741 743 746 747 750 755 760 764 766 772 778 782 782 783 785 787 790 793 797 801 805 805 806 809 810 811 813 814 815 816 818 819 821 822 823 824 825 826 827 827 827 828 828 829 829 828 828 828 829 830 831 833 835 837 838 839 840 840 840 839 840 839 839 840 841 843 844
754 749 753 748 744 746 743 732 720 716 723 724 725 732 734 726 719 715 712 711 712 717 718 719 726 730 733 737 737 738 741 745 747 750 756 763 767 769 769 773 778 781 783 784 785 789 793 796 799 803 806 808 809 809 810 812 813 814 815 816 817 819 821 822 823 824 825 826 826 827 827 827 828 828 829 828 828 828 829 830 832 834 836 837 838 839 840 840 840 839 839 839 839 840 841 842 844
758 754 752 748 742 742 741 734 721 715 721 725 726 731 730 724 718 713 711 710 711 715 714 715 723 728 732 734 735 738 742 747 751 756 764 769 771 773 773 775 776 779 785 786 787 790 794 797 799 801 804 807 809 809 811 812 813 813 813 815 816 818 820 821 822 823 824 825 826 826 827 827 827 827 828 828 828 829 829 830 832 834 835 836 837 838 839 840 839 839 839 839 839 840 841 842 843
749 746 746 747 744 740 734 727 717 713 721 724 724 730 728 722 719 713 708 708 711 714 713 715 722 727 731 734 736 739 744 750 755 760 767 768 771 776 778 779 778 780 786 787 788 791 794 796 797 799 802 805 808 809 810 812 813 813 813 814 815 817 819 820 822 823 824 825 825 825 826 826 826 827 828 828 829 829 829 831 832 834 835 836 837 838 839 839 839 839 838 839 839 840 841 842 843
740 740 741 741 742 739 728 720 710 706 719 723 718 724 724 720 718 711 707 708 711 715 715 717 722 727 731 735 738 742 747 752 756 760 764 765 769 777 781 782 781 782 786 788 789 791 794 795 796 798 801 805 807 808 810 812 813 814 814 814 815 817 819 820 822 823 824 824 824 825 825 825 826 827 828 829 829 829 830 831 833 834 835 836 838 838 839 839 839 839 838 839 840 840 842 843 844
740 742 743 741 740 736 723 716 708 701 714 720 715 720 722 718 716 709 706 710 712 711 712 716 722 725 729 734 739 745 750 754 756 760 764 763 767 777 784 784 781 781 784 787 789 792 794 795 796 798 801 805 807 809 810 812 813 814 814 814 815 817 819 821 823 823 824 824 823 824 824 825 826 827 828 829 830 830 830 832 833 834 835 836 837 838 838 839 838 838 838 839 840 841 842 844 845
741 742 744 745 739 732 723 713 705 700 709 717 715 718 719 714 712 708 706 709 709 705 705 711 718 724 728 733 738 745 752 755 755 758 762 763 765 774 785 787 783 780 782 786 790 792 793 793 794 796 799 803 806 808 809 811 813 813 813 814 815 817 820 822 823 824 824 824 824 824 824 825 826 827 828 829 830 830 830 832 833 834 835 836 837 837 838 838 838 838 838 839 840 841 842 844 845
740 741 745 746 735 734 735 720 706 700 703 709 712 717 717 712 710 707 704 705 704 702 701 704 710 718 724 728 735 743 749 750 752 756 759 762 766 775 785 788 784 782 783 785 789 792 791 791 791 791 794 799 802 805 807 809 810 811 812 813 814 817 820 822 824 825 825 825 825 825 826 826 827 828 828 829 830 831 831 831 833 834 835 835 836 836 837 837 837 838 838 839 840 841 842 843 845
739 736 740 741 732 731 734 725 714 707 703 702 709 722 723 716 716 711 702 702 703 702 703 704 707 715 723 730 738 743 744 745 750 754 758 763 769 777 786 788 785 784 785 785 787 788 788 788 788 788 790 794 798 802 805 806 807 809 811 812 814 817 820 823 825 826 826 827 827 827 827 828 828 829 829 830 830 831 831 832 832 833 834 834 835 835 836 836 837 838 838 839 840 841 842 843 845
739 733 730 731 729 727 728 728 728 728 722 708 709 735 738 719 717 716 706 704 705 703 706 708 711 720 729 738 744 746 745 746 748 753 759 764 770 778 784 785 784 784 785 785 785 785 785 786 786 786 788 791 795 799 801 803 804 807 809 810 813 817 820 823 825 826 827 827 828 828 828 828 829 829 830 830 831 831 832 832 832 832 833 833 833 834 835 835 836 837 838 839 840 841 842 843 845
741 730 722 722 724 726 728 731 737 743 738 716 710 736 746 728 719 717 710 710 709 706 707 710 716 726 735 742 746 747 748 748 751 755 759 764 769 774 778 781 782 782 783 785 785 785 785 785 784 784 786 789 792 795 797 799 801 804 807 810 813 817 820 822 824 826 827 828 828 828 828 828 828 829 829 830 831 832 832 832 831 832 832 832 832 832 834 835 836 837 838 839 840 841 841 842 844
737 723 718 723 723 725 727 730 737 738 732 722 714 724 743 742 726 715 711 715 715 709 709 713 721 731 737 742 745 745 746 748 752 757 759 764 767 769 773 777 778 779 781 784 784 784 785 785 784 783 784 787 790 792 795 797 800 803 806 810 814 817 819 821 824 825 827 828 828 828 828 828 828 828 829 830 830 831 832 832 831 832 832 832 832 832 833 835 836 837 838 839 839 840 840 841 843
726 716 717 722 722 722 721 726 733 730 732 740 727 721 743 750 729 716 715 718 719 713 712 719 728 735 740 742 743 743 745 747 750 755 758 762 765 766 770 774 775 776 779 781 783 783 785 785 784 783 784 786 788 791 794 797 801 804 806 809 813 817 819 821 823 825 826 827 827 828 828 828 828 828 829 829 830 830 831 831 831 832 832 832 833 833 834 835 836 837 838 838 838 839 840 841 842
716 713 717 718 719 719 718 724 728 729 740 749 734 725 745 752 731 723 726 724 721 714 714 723 730 736 740 741 743 743 746 749 751 753 756 758 760 762 767 772 774 775 777 780 782 783 785 785 785 785 786 788 790 793 796 799 802 804 806 809 812 815 818 820 822 824 825 826 827 828 828 828 829 828 829 829 829 830 831 831 832 832 832 832 833 834 835 835 836 837 838 838 838 839 840 841 842
711 714 719 722 723 720 721 721 722 738 751 745 732 725 740 753 738 729 733 730 721 713 719 731 736 739 741 740 742 743 745 748 750 751 754 756 756 758 766 772 772 774 776 779 781 783 785 786 787 788 789 792 794 796 798 800 802 803 805 808 811 813 816 818 820 822 824 825 826 827 828 828 828 828 829 829 829 830 831 832 832 832 833 833 834 835 835 835 836 837 838 839 839 839 839 840 841
712 717 723 732 733 729 732 728 726 750 761 742 727 722 736 753 742 729 731 727 719 714 721 736 740 740 741 740 741 743 745 747 748 750 753 755 755 758 766 770 769 771 774 777 780 783 785 787 790 791 793 794 796 798 799 800 802 803 805 808 810 812 814 817 819 821 822 823 824 825 826 827 828 828 829 829 830 830 831 832 832 833 834 834 835 836 836 836 836 837 838 839 840 840 840 840 841
714 719 726 741 748 747 751 747 742 753 753 735 725 727 739 747 735 726 726 722 718 714 716 730 739 740 741 741 741 743 745 747 748 751 753 754 756 759 765 767 767 769 772 776 780 783 785 788 790 793 795 796 798 799 800 802 803 804 806 807 809 812 814 816 819 820 821 822 823 824 825 826 827 828 829 830 830 831 831 832 833 833 834 835 836 836 837 837 837 838 839 839 840 840 841 841 841
718 722 729 742 754 762 765 756 751 753 746 729 721 730 743 744 734 727 723 721 720 717 719 727 735 741 743 742 742 742 744 746 749 751 752 754 757 761 765 767 769 772 774 777 781 784 786 788 790 793 796 798 799 801 802 803 804 805 806 807 809 811 813 815 818 819 820 821 822 823 824 825 826 827 829 830 831 831 832 832 833 834 835 835 836 837 837 838 838 838 839 839 840 841 841 842 842
713 711 718 733 742 753 761 755 753 754 746 732 726 735 746 748 741 728 720 722 722 723 729 732 736 741 742 742 743 744 745 748 750 752 754 757 761 765 768 770 773 777 778 779 782 785 787 789 791 793 796 798 800 801 803 804 804 805 806 808 809 811 812 814 816 818 818 819 821 822 824 825 826 827 828 830 831 831 832 833 833 834 835 836 836 837 838 838 839 839 839 839 840 841 841 842 843
712 703 714 729 727 731 745 748 746 746 747 743 741 745 741 736 734 725 721 727 729 730 733 737 742 743 742 744 745 746 748 750 752 754 756 760 765 770 772 773 776 778 780 781 783 786 789 790 792 793 796 798 800 801 803 804 804 805 806 808 810 812 813 814 816 817 818 819 821 822 823 825 826 827 828 830 831 832 832 833 834 834 835 836 837 838 838 839 840 840 841 841 841 841 842 842 843
718 714 720 720 709 716 737 747 741 741 753 756 752 751 741 734 736 734 731 735 738 740 739 741 747 746 745 747 747 749 751 752 754 756 758 762 767 771 773 774 776 777 779 781 783 787 789 791 793 794 796 798 799 801 802 804 804 805 807 809 810 812 813 814 815 816 818 819 820 822 823 824 826 827 828 829 831 832 833 834 834 835 835 836 837 838 839 840 840 841 842 842 842 843 843 843 844
717 722 717 709 708 713 726 743 748 750 759 761 756 756 752 752 754 750 751 750 746 746 747 747 750 751 751 751 750 752 753 754 756 758 760 763 765 770 773 775 776 776 778 780 782 786 789 792 794 795 796 797 799 801 802 803 804 805 807 808 810 811 812 814 815 816 817 819 820 822 823 824 826 827 828 829 831 832 833 834 834 835 835 836 837 839 840 840 841 841 842 843 843 844 844 844 845
704 710 705 710 728 732 731 742 753 758 762 762 762 761 760 764 762 758 767 768 755 752 754 754 756 757 756 755 754 754 755 758 759 760 762 763 766 771 774 776 776 777 779 779 780 782 786 790 793 794 796 797 799 800 801 802 803 804 806 808 809 811 812 813 815 816 817 818 820 821 823 824 826 827 828 829 831 831 833 834 834 835 836 836 838 839 841 841 842 842 843 843 844 844 844 845 845
697 702 703 707 721 731 734 738 742 751 762 768 772 772 770 768 760 757 767 768 759 757 759 760 761 761 760 758 757 758 758 760 762 764 765 766 769 773 774 775 776 777 778 777 776 778 781 786 790 793 795 796 798 799 800 802 803 804 806 807 809 810 811 813 814 816 817 818 820 821 822 824 826 827 828 829 831 831 832 833 834 835 836 837 838 840 841 842 843 843 844 844 845 845 845 845 846
705 712 715 713 716 721 729 734 731 738 758 772 778 781 779 770 758 757 763 763 759 758 759 762 763 761 760 759 758 759 760 762 764 766 768 769 771 772 772 773 773 774 775 775 776 778 781 785 788 791 794 795 797 798 799 801 802 804 806 807 808 809 811 813 814 816 817 818 820 821 822 824 825 827 828 829 830 831 832 833 834 835 836 837 838 840 842 843 844 845 845 845 846 846 846 846 847
705 710 712 712 718 725 736 743 733 729 747 760 766 779 785 775 763 758 760 761 761 759 760 763 764 763 763 762 761 762 763 764 765 766 768 769 770 772 773 773 773 774 776 778 780 781 784 786 789 792 794 795 796 798 799 801 802 804 806 807 808 809 810 812 814 816 817 818 820 821 822 824 825 827 828 829 830 831 832 833 834 835 836 837 838 840 841 843 844 845 846 846 847 847 847 847 848